Appleton, MN

8:56 AM CST on November 22, 2019 (GMT -0600)
Appleton Municipal

Weather History for KAQP - August, 2019

Change the Weather History Date:

Friday, August 16, 2019

  Actual Average Record
Temperature  
Mean Temperature 68 °F -  
Max Temperature 80 °F 77 °F 93 °F (2003)
Min Temperature 57 °F 55 °F 48 °F (2002)
Cooling Degree Days 4    
Growing Degree Days 18 (Base 50)    
Moisture  
Dew Point 58 °F    
Average Humidity 71    
Maximum Humidity 94    
Minimum Humidity 37    
Precipitation  
Precipitation 0.00 in - - ()
Sea Level Pressure  
Sea Level Pressure 29.83 in    
Wind  
Wind Speed 3 mph (WSW)    
Max Wind Speed 12 mph    
Max Gust Speed -    
Visibility 10 miles    
Events      
Averages and records for this station are not official NWS values.
T = Trace of Precipitation, MM = Missing Value Source: NWS Daily Summary

Daily Weather History Graph

Daily Weather History Graph

Search for Another Location

Airport or City:

Astronomy

Aug. 16, 2019 Rise Set
Actual Time 6:26 AM CDT 8:29 PM CDT
Civil Twilight 5:54 AM CDT 9:01 PM CDT
Nautical Twilight 5:14 AM CDT 9:40 PM CDT
Astronomical Twilight 4:31 AM CDT 10:23 PM CDT
Moon 9:27 PM CDT (8/16) 7:19 AM CDT (8/16)
Length of Visible Light 15h 07m
Length of Day
14h 03m
Full, 99% of the Moon is Illuminated
Aug 16
Full
Aug 23
Last Quarter
Aug 30
New
Sep 5
First Quarter
Sep 13
Full

Hourly Weather History & Observations

Time (CDT) Temp. Heat Index Dew Point Humidity Pressure Visibility Wind Dir Wind Speed Gust Speed Precip Events Conditions
12:13 AM 62.6 °F - 60.8 °F 94% 29.81 in 10.0 mi West 5.8 mph - N/A   Overcast
12:31 AM 62.6 °F - 60.8 °F 94% 29.82 in 10.0 mi WNW 4.6 mph - N/A   Overcast
12:52 AM 62.6 °F - 59.0 °F 88% 29.82 in 10.0 mi NNW 6.9 mph - N/A   Scattered Clouds
1:11 AM 62.6 °F - 59.0 °F 88% 29.82 in 10.0 mi North 5.8 mph - N/A   Clear
1:31 AM 60.8 °F - 57.2 °F 88% 29.82 in 10.0 mi Calm Calm - N/A   Clear
1:54 AM 60.8 °F - 57.2 °F 88% 29.82 in 10.0 mi Calm Calm - N/A   Mostly Cloudy
2:10 AM 60.8 °F - 57.2 °F 88% 29.82 in 10.0 mi Calm Calm - N/A   Scattered Clouds
2:31 AM 59.0 °F - 55.4 °F 88% 29.82 in 5.0 mi Calm Calm - N/A   Clear
2:50 AM 59.0 °F - 55.4 °F 88% 29.82 in 10.0 mi Calm Calm - N/A   Clear
3:13 AM 59.0 °F - 57.2 °F 94% 29.82 in 7.0 mi Calm Calm - N/A   Clear
3:31 AM 59.0 °F - 57.2 °F 94% 29.83 in 7.0 mi Calm Calm - N/A   Clear
3:54 AM 59.0 °F - 57.2 °F 94% 29.82 in 10.0 mi Calm Calm - N/A   Clear
4:13 AM 57.2 °F - 55.4 °F 94% 29.83 in 10.0 mi Calm Calm - N/A   Clear
4:31 AM 57.2 °F - 55.4 °F 94% 29.82 in 10.0 mi Calm Calm - N/A   Clear
4:51 AM 57.2 °F - 55.4 °F 94% 29.82 in 7.0 mi Calm Calm - N/A   Clear
5:11 AM 57.2 °F - 53.6 °F 88% 29.84 in 10.0 mi Calm Calm - N/A   Clear
5:31 AM 57.2 °F - 55.4 °F 94% 29.84 in 10.0 mi Calm Calm - N/A   Clear
5:52 AM 57.2 °F - 53.6 °F 88% 29.83 in 10.0 mi Calm Calm - N/A   Clear
6:11 AM 57.2 °F - 55.4 °F 94% 29.84 in 7.0 mi Calm Calm - N/A   Clear
6:30 AM 57.2 °F - 55.4 °F 94% 29.84 in 10.0 mi Calm Calm - N/A   Clear
6:56 AM 57.2 °F - 53.6 °F 88% 29.84 in 10.0 mi Calm Calm - N/A   Clear
7:11 AM 57.2 °F - 55.4 °F 94% 29.84 in 10.0 mi Calm Calm - N/A   Clear
7:34 AM 57.2 °F - 55.4 °F 94% 29.85 in 10.0 mi Calm Calm - N/A   Clear
7:51 AM 60.8 °F - 57.2 °F 88% 29.85 in 10.0 mi Calm Calm - N/A   Clear
8:12 AM 60.8 °F - 57.2 °F 88% 29.84 in 10.0 mi Calm Calm - N/A   Clear
8:30 AM 62.6 °F - 57.2 °F 82% 29.85 in 10.0 mi Calm Calm - N/A   Clear
8:54 AM 64.4 °F - 59.0 °F 83% 29.86 in 10.0 mi Calm Calm - N/A   Clear
9:11 AM 64.4 °F - 60.8 °F 88% 29.86 in 10.0 mi Calm Calm - N/A   Clear
9:31 AM 66.2 °F - 59.0 °F 78% 29.86 in 10.0 mi Calm Calm - N/A   Clear
9:50 AM 68.0 °F - 60.8 °F 78% 29.86 in 10.0 mi Calm Calm - N/A   Clear
10:12 AM 69.8 °F - 60.8 °F 73% 29.86 in 10.0 mi Calm Calm - N/A   Clear
10:31 AM 71.6 °F - 60.8 °F 69% 29.87 in 10.0 mi Calm Calm - N/A   Clear
10:51 AM 71.6 °F - 60.8 °F 69% 29.86 in 10.0 mi WSW 9.2 mph - N/A   Clear
11:11 AM 73.4 °F - 60.8 °F 65% 29.86 in 10.0 mi WSW 9.2 mph - N/A   Clear
11:31 AM 73.4 °F - 60.8 °F 65% 29.86 in 10.0 mi WSW 8.1 mph - N/A   Clear
11:50 AM 75.2 °F - 60.8 °F 61% 29.85 in 10.0 mi WSW 8.1 mph - N/A   Clear
12:10 PM 75.2 °F - 60.8 °F 61% 29.85 in 10.0 mi West 6.9 mph - N/A   Clear
12:32 PM 77.0 °F - 60.8 °F 57% 29.85 in 10.0 mi West 8.1 mph - N/A   Clear
12:55 PM 77.0 °F - 60.8 °F 57% 29.85 in 10.0 mi WNW 8.1 mph - N/A   Clear
1:11 PM 78.8 °F - 60.8 °F 54% 29.85 in 10.0 mi West 8.1 mph - N/A   Clear
1:32 PM 78.8 °F - 60.8 °F 54% 29.84 in 10.0 mi WNW 8.1 mph - N/A   Clear
1:51 PM 78.8 °F - 57.2 °F 47% 29.84 in 10.0 mi WSW 11.5 mph - N/A   Clear
2:10 PM 80.6 °F 80.8 °F 57.2 °F 45% 29.84 in 10.0 mi West 9.2 mph - N/A   Clear
2:34 PM 80.6 °F 80.8 °F 57.2 °F 45% 29.84 in 10.0 mi WSW 8.1 mph - N/A   Clear
2:51 PM 80.6 °F 80.8 °F 57.2 °F 45% 29.83 in 10.0 mi West 10.4 mph - N/A   Clear
3:11 PM 80.6 °F 80.5 °F 55.4 °F 42% 29.83 in 10.0 mi West 6.9 mph - N/A   Clear
3:31 PM 80.6 °F 80.5 °F 55.4 °F 42% 29.83 in 10.0 mi West 9.2 mph - N/A   Clear
3:53 PM 80.6 °F 80.3 °F 53.6 °F 39% 29.82 in 10.0 mi WSW 9.2 mph - N/A   Clear
4:14 PM 80.6 °F - 51.8 °F 37% 29.82 in 10.0 mi West 8.1 mph - N/A   Clear
4:30 PM 80.6 °F 80.3 °F 53.6 °F 39% 29.82 in 10.0 mi West 9.2 mph - N/A   Clear
4:50 PM 80.6 °F 80.5 °F 55.4 °F 42% 29.82 in 10.0 mi West 8.1 mph - N/A   Clear
5:12 PM 80.6 °F 80.5 °F 55.4 °F 42% 29.82 in 10.0 mi SW 9.2 mph - N/A   Clear
5:31 PM 80.6 °F 80.5 °F 55.4 °F 42% 29.82 in 10.0 mi WSW 8.1 mph - N/A   Clear
5:51 PM 78.8 °F - 55.4 °F 44% 29.82 in 10.0 mi West 6.9 mph - N/A   Clear
6:12 PM 78.8 °F - 55.4 °F 44% 29.82 in 10.0 mi WSW 5.8 mph - N/A   Clear
6:33 PM 78.8 °F - 57.2 °F 47% 29.81 in 10.0 mi SW 3.5 mph - N/A   Clear
6:51 PM 78.8 °F - 57.2 °F 47% 29.81 in 10.0 mi WSW 3.5 mph - N/A   Clear
7:11 PM 77.0 °F - 59.0 °F 54% 29.80 in 10.0 mi Calm Calm - N/A   Clear
7:32 PM 75.2 °F - 59.0 °F 57% 29.81 in 10.0 mi Calm Calm - N/A   Clear
7:51 PM 75.2 °F - 59.0 °F 57% 29.81 in 10.0 mi Calm Calm - N/A   Clear
8:11 PM 73.4 °F - 60.8 °F 65% 29.81 in 10.0 mi Calm Calm - N/A   Clear
8:31 PM 71.6 °F - 60.8 °F 69% 29.81 in 10.0 mi Calm Calm - N/A   Clear
8:53 PM 71.6 °F - 60.8 °F 69% 29.81 in 10.0 mi South 3.5 mph - N/A   Clear
9:10 PM 69.8 °F - 60.8 °F 73% 29.81 in 10.0 mi Calm Calm - N/A   Clear
9:33 PM 69.8 °F - 60.8 °F 73% 29.81 in 10.0 mi SSE 3.5 mph - N/A   Clear
9:51 PM 69.8 °F - 60.8 °F 73% 29.82 in 10.0 mi SSE 4.6 mph - N/A   Clear
10:13 PM 68.0 °F - 60.8 °F 78% 29.82 in 10.0 mi Calm Calm - N/A   Clear
10:32 PM 68.0 °F - 60.8 °F 78% 29.82 in 10.0 mi Calm Calm - N/A   Clear
10:52 PM 68.0 °F - 60.8 °F 78% 29.82 in 10.0 mi Calm Calm - N/A   Clear
11:11 PM 68.0 °F - 60.8 °F 78% 29.83 in 10.0 mi Calm Calm - N/A   Scattered Clouds
11:32 PM 68.0 °F - 59.0 °F 73% 29.83 in 10.0 mi Calm Calm - N/A   Scattered Clouds
11:53 PM 68.0 °F - 59.0 °F 73% 29.83 in 10.0 mi Calm Calm - N/A   Clear